This is the latest recevied weather packets stored in our database for station/object S59DKS-10. If no packets are shown the sender has not sent any weather packets the latest 10 day(s).
| Time | Temp. | Humidity | Pressure | Rain* | Wind** | Luminosity | Snow |
|---|---|---|---|---|---|---|---|
| 1777740509 | 18.33° C | 38% | 1023.2 hPa | - | - | - | - |
| 1777739610 | 18.89° C | 37% | 1023.4 hPa | - | - | - | - |
| 1777738711 | 19.44° C | 37% | 1023.5 hPa | - | - | - | - |
| 1777737813 | 20° C | 36% | 1023.5 hPa | - | - | - | - |
| 1777736914 | 20.56° C | 36% | 1023.6 hPa | - | - | - | - |
| 1777736015 | 20.56° C | 36% | 1023.7 hPa | - | - | - | - |
| 1777735115 | 21.11° C | 36% | 1023.8 hPa | - | - | - | - |
| 1777734216 | 20.56° C | 37% | 1024 hPa | - | - | - | - |
| 1777733314 | 21.11° C | 37% | 1024.1 hPa | - | - | - | - |
| 1777732424 | 21.11° C | 37% | 1024.1 hPa | - | - | - | - |
| 1777731516 | 21.67° C | 37% | 1024.3 hPa | - | - | - | - |
| 1777730662 | 21.67° C | 37% | 1024.4 hPa | - | - | - | - |
| 1777730616 | 21.67° C | 37% | 1024.4 hPa | - | - | - | - |
| 1777729718 | 21.67° C | 36% | 1024.5 hPa | - | - | - | - |
| 1777728819 | 22.22° C | 36% | 1024.6 hPa | - | - | - | - |
| 1777727919 | 21.67° C | 35% | 1024.8 hPa | - | - | - | - |
| 1777727020 | 21.11° C | 35% | 1024.9 hPa | - | - | - | - |
| 1777726120 | 21.67° C | 34% | 1025.1 hPa | - | - | - | - |
| 1777725220 | 21.67° C | 35% | 1025.3 hPa | - | - | - | - |
| 1777724321 | 21.67° C | 35% | 1025.3 hPa | - | - | - | - |
| 1777723421 | 21.67° C | 34% | 1025.5 hPa | - | - | - | - |
| 1777722575 | 21.67° C | 32% | 1025.5 hPa | - | - | - | - |
| 1777722522 | 21.67° C | 32% | 1025.5 hPa | - | - | - | - |
| 1777721623 | 22.22° C | 29% | 1025.7 hPa | - | - | - | - |
| 1777720724 | 22.22° C | 29% | 1025.8 hPa | - | - | - | - |
* Rain since midnight (hover to see other rain measurements)
** Current wind speed in m/s (hover to see current wind gust speed)